Stündliche Wetter Abdulkasimovo

Heute, 23 Juni, Mittwoch

Zeit Temperatur Niederschläge Wind Luftdruck Luftfeuchtigkeit
00:00 +18°C° 0 mm 3 m/S 714 mmHg 86%
01:00 +18°C° 0 mm 3 m/S 714 mmHg 88%
02:00 +17°C° 0 mm 2 m/S 714 mmHg 89%
03:00 +17°C° 0 mm 2 m/S 714 mmHg 89%
04:00 +17°C° 0 mm 2 m/S 713 mmHg 90%
05:00 +19°C° 0 mm 3 m/S 713 mmHg 84%
06:00 +21°C° 0 mm 3 m/S 714 mmHg 77%
07:00 +23°C° 0 mm 4 m/S 714 mmHg 70%
08:00 +23°C° 0.3 mm 4 m/S 714 mmHg 67%
09:00 +25°C° 0.3 mm 5 m/S 714 mmHg 64%
10:00 +26°C° 0.3 mm 5 m/S 714 mmHg 61%
11:00 +22°C° 1.2 mm 5 m/S 714 mmHg 72%
12:00 +20°C° 1.2 mm 4 m/S 714 mmHg 82%
13:00 +18°C° 1.2 mm 3 m/S 715 mmHg 92%
14:00 +17°C° 0.8 mm 3 m/S 715 mmHg 93%
15:00 +16°C° 0.8 mm 3 m/S 715 mmHg 93%
16:00 +15°C° 0.8 mm 2 m/S 715 mmHg 93%
17:00 +15°C° 0.1 mm 2 m/S 715 mmHg 93%
18:00 +15°C° 0.1 mm 1 m/S 715 mmHg 93%
19:00 +14°C° 0.1 mm 1 m/S 715 mmHg 93%
20:00 +14°C° 0 mm 1 m/S 715 mmHg 93%
21:00 +14°C° 0 mm 1 m/S 715 mmHg 93%
22:00 +13°C° 0 mm 0 m/S 716 mmHg 94%
23:00 +12°C° 0 mm 0 m/S 716 mmHg 93%

Morgen, 24 Juni, Donnerstag

Zeit Temperatur Niederschläge Wind Luftdruck Luftfeuchtigkeit
00:00 +12°C° 0 mm 0 m/S 716 mmHg 93%
01:00 +11°C° 0 mm 0 m/S 715 mmHg 93%
02:00 +11°C° 0 mm 0 m/S 716 mmHg 93%
03:00 +11°C° 0 mm 1 m/S 716 mmHg 92%
04:00 +11°C° 0 mm 1 m/S 716 mmHg 92%
05:00 +11°C° 0 mm 0 m/S 716 mmHg 86%
06:00 +13°C° 0 mm 0 m/S 716 mmHg 79%
07:00 +15°C° 0 mm 0 m/S 716 mmHg 73%
08:00 +17°C° 0 mm 0 m/S 716 mmHg 62%
09:00 +19°C° 0 mm 0 m/S 717 mmHg 50%
10:00 +20°C° 0 mm 0 m/S 717 mmHg 39%
11:00 +23°C° 0 mm 1 m/S 717 mmHg 36%
12:00 +24°C° 0 mm 1 m/S 717 mmHg 34%
13:00 +25°C° 0 mm 1 m/S 717 mmHg 32%
14:00 +25°C° 0 mm 1 m/S 716 mmHg 32%
15:00 +25°C° 0 mm 1 m/S 716 mmHg 32%
16:00 +25°C° 0 mm 2 m/S 716 mmHg 33%
17:00 +24°C° 0 mm 1 m/S 715 mmHg 41%
18:00 +23°C° 0 mm 1 m/S 715 mmHg 50%
19:00 +22°C° 0 mm 1 m/S 715 mmHg 59%
20:00 +20°C° 0 mm 1 m/S 715 mmHg 62%
21:00 +18°C° 0 mm 1 m/S 714 mmHg 64%
22:00 +15°C° 0 mm 1 m/S 714 mmHg 66%
23:00 +15°C° 0 mm 1 m/S 714 mmHg 65%

übermorgen, 25 Juni, Freitag

Zeit Temperatur Niederschläge Wind Luftdruck Luftfeuchtigkeit
00:00 +15°C° 0 mm 1 m/S 714 mmHg 64%
01:00 +15°C° 0 mm 1 m/S 714 mmHg 63%
02:00 +15°C° 0 mm 1 m/S 713 mmHg 63%
03:00 +15°C° 0 mm 1 m/S 713 mmHg 63%
04:00 +15°C° 0 mm 1 m/S 713 mmHg 62%
05:00 +18°C° 0 mm 1 m/S 713 mmHg 59%
06:00 +19°C° 0 mm 1 m/S 713 mmHg 56%
07:00 +21°C° 0 mm 1 m/S 713 mmHg 53%
08:00 +23°C° 0 mm 2 m/S 713 mmHg 52%
09:00 +25°C° 0 mm 2 m/S 713 mmHg 51%
10:00 +27°C° 0 mm 2 m/S 713 mmHg 50%
11:00 +27°C° 0 mm 3 m/S 713 mmHg 49%
12:00 +28°C° 0 mm 3 m/S 713 mmHg 47%
13:00 +29°C° 0 mm 3 m/S 713 mmHg 46%
14:00 +28°C° 0 mm 3 m/S 713 mmHg 49%
15:00 +28°C° 0 mm 2 m/S 713 mmHg 53%
16:00 +27°C° 0 mm 2 m/S 713 mmHg 57%
17:00 +26°C° 0.1 mm 2 m/S 712 mmHg 62%
18:00 +25°C° 0.1 mm 2 m/S 712 mmHg 68%
19:00 +24°C° 0.1 mm 1 m/S 712 mmHg 74%
20:00 +23°C° 0.2 mm 1 m/S 712 mmHg 79%
21:00 +21°C° 0.2 mm 1 m/S 711 mmHg 85%
22:00 +20°C° 0.2 mm 1 m/S 711 mmHg 90%
23:00 +19°C° 0.2 mm 1 m/S 711 mmHg 91%

26 Juni, Samstag

Zeit Temperatur Niederschläge Wind Luftdruck Luftfeuchtigkeit
00:00 +19°C° 0.2 mm 1 m/S 711 mmHg 92%
01:00 +19°C° 0.2 mm 1 m/S 711 mmHg 93%
02:00 +18°C° 0 mm 2 m/S 710 mmHg 94%
03:00 +17°C° 0 mm 2 m/S 710 mmHg 94%
04:00 +17°C° 0 mm 2 m/S 710 mmHg 94%
05:00 +19°C° 0 mm 2 m/S 710 mmHg 90%
06:00 +21°C° 0 mm 2 m/S 710 mmHg 86%
07:00 +22°C° 0 mm 3 m/S 710 mmHg 81%
08:00 +25°C° 0 mm 3 m/S 710 mmHg 71%
09:00 +27°C° 0 mm 3 m/S 710 mmHg 60%
10:00 +28°C° 0 mm 4 m/S 711 mmHg 50%
11:00 +29°C° 0 mm 4 m/S 711 mmHg 50%
12:00 +29°C° 0 mm 4 m/S 711 mmHg 49%
13:00 +29°C° 0 mm 4 m/S 711 mmHg 49%
14:00 +29°C° 0 mm 4 m/S 711 mmHg 48%
15:00 +29°C° 0 mm 4 m/S 711 mmHg 48%
16:00 +29°C° 0 mm 4 m/S 711 mmHg 47%
17:00 +26°C° 1 mm 3 m/S 711 mmHg 59%
18:00 +24°C° 1 mm 3 m/S 710 mmHg 72%
19:00 +21°C° 1 mm 2 m/S 710 mmHg 84%
20:00 +20°C° 0 mm 2 m/S 710 mmHg 86%
21:00 +19°C° 0 mm 2 m/S 710 mmHg 88%
22:00 +18°C° 0 mm 2 m/S 710 mmHg 90%
23:00 +17°C° 0 mm 2 m/S 710 mmHg 91%

27 Juni, Sonntag

Zeit Temperatur Niederschläge Wind Luftdruck Luftfeuchtigkeit
00:00 +17°C° 0 mm 2 m/S 710 mmHg 91%
01:00 +18°C° 0 mm 1 m/S 710 mmHg 91%
02:00 +16°C° 0 mm 1 m/S 710 mmHg 92%
03:00 +15°C° 0 mm 1 m/S 710 mmHg 93%
04:00 +15°C° 0 mm 1 m/S 710 mmHg 94%
05:00 +16°C° 0 mm 1 m/S 711 mmHg 91%
06:00 +19°C° 0 mm 1 m/S 711 mmHg 87%
07:00 +19°C° 0 mm 2 m/S 711 mmHg 83%
08:00 +19°C° 0.1 mm 2 m/S 712 mmHg 81%
09:00 +20°C° 0.1 mm 2 m/S 712 mmHg 78%
10:00 +20°C° 0.1 mm 2 m/S 712 mmHg 75%
11:00 +21°C° 0 mm 2 m/S 712 mmHg 69%
12:00 +23°C° 0 mm 2 m/S 712 mmHg 63%
13:00 +24°C° 0 mm 2 m/S 712 mmHg 56%
14:00 +24°C° 0 mm 3 m/S 712 mmHg 56%
15:00 +24°C° 0 mm 3 m/S 712 mmHg 55%
16:00 +24°C° 0 mm 3 m/S 712 mmHg 54%
17:00 +22°C° 0 mm 3 m/S 713 mmHg 59%
18:00 +21°C° 0 mm 3 m/S 713 mmHg 64%
19:00 +20°C° 0 mm 2 m/S 713 mmHg 69%
20:00 +19°C° 0 mm 2 m/S 713 mmHg 73%
21:00 +18°C° 0 mm 1 m/S 713 mmHg 77%
22:00 +16°C° 0 mm 1 m/S 713 mmHg 81%
23:00 +15°C° 0 mm 0 m/S 713 mmHg 80%

28 Juni, Montag

Zeit Temperatur Niederschläge Wind Luftdruck Luftfeuchtigkeit
00:00 +15°C° 0 mm 0 m/S 713 mmHg 80%
01:00 +15°C° 0 mm 0 m/S 713 mmHg 79%
02:00 +15°C° 0 mm 0 m/S 713 mmHg 80%
03:00 +14°C° 0 mm 0 m/S 713 mmHg 80%
04:00 +14°C° 0 mm 0 m/S 713 mmHg 81%
05:00 +16°C° 0 mm 0 m/S 713 mmHg 74%
06:00 +17°C° 0 mm 0 m/S 713 mmHg 68%
07:00 +19°C° 0 mm 0 m/S 713 mmHg 61%
08:00 +22°C° 0 mm 1 m/S 713 mmHg 55%
09:00 +24°C° 0 mm 1 m/S 713 mmHg 49%
10:00 +25°C° 0 mm 1 m/S 713 mmHg 43%
11:00 +26°C° 0 mm 1 m/S 713 mmHg 42%
12:00 +26°C° 0 mm 1 m/S 713 mmHg 41%
13:00 +26°C° 0 mm 1 m/S 713 mmHg 41%
14:00 +26°C° 0 mm 2 m/S 713 mmHg 45%
15:00 +25°C° 0 mm 2 m/S 713 mmHg 49%
16:00 +25°C° 0 mm 2 m/S 713 mmHg 53%
17:00 +24°C° 0.1 mm 2 m/S 713 mmHg 60%
18:00 +23°C° 0.1 mm 2 m/S 713 mmHg 67%
19:00 +22°C° 0.1 mm 1 m/S 713 mmHg 74%
20:00 +20°C° 0 mm 1 m/S 713 mmHg 80%
21:00 +18°C° 0 mm 2 m/S 713 mmHg 87%
22:00 +16°C° 0 mm 2 m/S 714 mmHg 94%
23:00 +16°C° 0 mm 2 m/S 714 mmHg 94%
Mehr zeigen

Wir brauchen deine Erlaubnis

Meteoprog und unser Service Anbieter werden persönliche Daten aufbewahren, so wie Cookies, Geräte Bezeichnung oder ähnliche Technologien von deinem Gerät und Prozess, so wie Persönliche Daten Inhalte und Werbungen, genauso wie social Media und den Verkehr zu analysieren.

  • Aufbewahrung und/oder Zugang zu deiner Geräte Informationen.

    Cookies, Geräte Bezeichnung oder andere Informationen, können aufbewahrt oder Zugang zu deinem Gerät erhalten, für den Grund, der oben angegeben wird.

  • Personalisierte Werbung und Inhalte, Messungen, Einblick in das Publikum und Produkt Entwicklung.

    Werbungen und Inhalte können personalisiert werden, basierend auf ein Profil. Mehr Daten können besser personalisierte Werbungen und Inhalte hinzufügen. Werbung und Inhalte können gezeigt und gemessen werden. Einblicke über das Publikum, welche die Werbung gesehen haben und den Inhalt, können abgeleitet werden. So wie Daten können genutzt werden, um es zu verbessern oder die Benutzer Erfahrung zu verbessern das System und die Software.

Wenn du “Ich stimme zu” klickst, erlaubst du uns, die Cookies zu benutzen die Geräte Bezeichnung, den Web oder ähnliche Technologien zu benutzen. Deine Settings, können in deinem Gerät bei deinem Browser geändert werden.

Für den bestimmten Zweck, berechtigten Interessen beruhen darauf, mehr als auf den Inhalt. Du kannst mehr darüber in unseren Privaten und Cookie Politik lesen.